| time (UTC) | temp F | wind direction | speed MPH | gust MPH | rain 1hr in | rain 24hr in | rain mn in | humidity % | barometer mb |
| 20260510031818 | 56 | 198 | 0.0 | 0.0 | 0.00 | 0.00 | 0.00 | 81 | 1011.2 |
| 20260510031548 | 55 | 198 | 0.0 | 0.0 | 0.00 | 0.00 | 0.00 | 81 | 1011.0 |
| 20260510031322 | 56 | 198 | 0.0 | 0.0 | 0.00 | 0.00 | 0.00 | 81 | 1011.3 |
| 20260510030838 | 56 | 198 | 0.0 | 0.0 | 0.00 | 0.00 | 0.00 | 81 | 1011.1 |
| 20260510030334 | 56 | 198 | 0.0 | 0.0 | 0.00 | 0.00 | 0.00 | 81 | 1011.1 |
| 20260510030057 | 56 | 198 | 0.0 | 0.0 | 0.00 | 0.00 | 0.00 | 81 | 1010.9 |
| 20260510025815 | 56 | 198 | 0.0 | 0.0 | 0.00 | 0.00 | 0.00 | 82 | 1011.1 |
| 20260510025343 | 56 | 198 | 0.0 | 0.0 | 0.00 | 0.00 | 0.00 | 82 | 1010.9 |
| 20260510024819 | 57 | 198 | 0.0 | 0.0 | 0.00 | 0.00 | 0.00 | 82 | 1010.8 |
| 20260510024541 | 56 | 198 | 0.0 | 0.0 | 0.00 | 0.00 | 0.00 | 82 | 1010.6 |
| 20260510024335 | 57 | 198 | 0.0 | 0.0 | 0.00 | 0.00 | 0.00 | 82 | 1010.9 |
| 20260510023823 | 57 | 198 | 0.0 | 0.0 | 0.00 | 0.00 | 0.00 | 82 | 1010.9 |
| 20260510023339 | 57 | 198 | 0.0 | 0.0 | 0.00 | 0.00 | 0.00 | 81 | 1010.8 |
| 20260510023007 | 57 | 198 | 0.0 | 0.0 | 0.00 | 0.00 | 0.00 | 81 | 1010.5 |
| 20260510022823 | 58 | 198 | 0.0 | 0.0 | 0.00 | 0.00 | 0.00 | 81 | 1010.8 |
| 20260510022339 | 59 | 198 | 0.0 | 1.0 | 0.00 | 0.00 | 0.00 | 81 | 1010.7 |
| 20260510021828 | 60 | 198 | 0.0 | 1.0 | 0.00 | 0.00 | 0.00 | 80 | 1010.7 |
| 20260510021531 | 59 | 198 | 0.0 | 0.0 | 0.00 | 0.00 | 0.00 | 80 | 1010.3 |
| 20260510021318 | 60 | 198 | 0.0 | 0.0 | 0.00 | 0.00 | 0.00 | 80 | 1010.5 |
| 20260510020820 | 60 | 198 | 0.0 | 0.0 | 0.00 | 0.00 | 0.00 | 80 | 1010.5 |
| 20260510020333 | 61 | 198 | 0.0 | 0.0 | 0.00 | 0.00 | 0.00 | 79 | 1010.4 |
| 20260510020024 | 60 | 198 | 0.0 | 0.0 | 0.00 | 0.00 | 0.00 | 79 | 1010.1 |
| 20260510015815 | 61 | 198 | 0.0 | 0.0 | 0.00 | 0.00 | 0.00 | 79 | 1010.2 |
| 20260510015346 | 61 | 198 | 0.0 | 0.0 | 0.00 | 0.00 | 0.00 | 79 | 1010.1 |
| 20260510014824 | 61 | 198 | 0.0 | 0.0 | 0.00 | 0.00 | 0.00 | 78 | 1010.0 |
| 20260510014540 | 61 | 198 | 0.0 | 0.0 | 0.00 | 0.00 | 0.00 | 78 | 1009.8 |
| 20260510014331 | 62 | 198 | 0.0 | 0.0 | 0.00 | 0.00 | 0.00 | 78 | 1010.0 |
| 20260510013847 | 62 | 198 | 0.0 | 0.0 | 0.00 | 0.00 | 0.00 | 77 | 1010.0 |
| 20260510013357 | 62 | 198 | 0.0 | 0.0 | 0.00 | 0.00 | 0.00 | 77 | 1009.9 |
| 20260510013052 | 62 | 198 | 0.0 | 0.0 | 0.00 | 0.00 | 0.00 | 76 | 1009.5 |
| 20260510012839 | 63 | 198 | 0.0 | 0.0 | 0.00 | 0.00 | 0.00 | 76 | 1009.8 |
| 20260510012329 | 63 | 198 | 0.0 | 1.0 | 0.00 | 0.00 | 0.00 | 75 | 1009.7 |
| 20260510011822 | 64 | 198 | 0.0 | 1.0 | 0.00 | 0.00 | 0.00 | 74 | 1009.6 |
| 20260510011554 | 63 | 198 | 0.0 | 0.0 | 0.00 | 0.00 | 0.00 | 74 | 1009.2 |
| 20260510011358 | 64 | 198 | 0.0 | 0.0 | 0.00 | 0.00 | 0.00 | 73 | 1009.6 |
| 20260510010819 | 65 | 198 | 0.0 | 0.0 | 0.00 | 0.00 | 0.00 | 72 | 1009.5 |
| 20260510010343 | 65 | 198 | 0.0 | 0.0 | 0.00 | 0.00 | 0.00 | 71 | 1009.4 |
| 20260510010004 | 65 | 198 | 0.0 | 0.0 | 0.00 | 0.00 | 0.00 | 71 | 1009.0 |
| 20260510005826 | 66 | 198 | 0.0 | 0.0 | 0.00 | 0.00 | 0.00 | 70 | 1009.2 |
| 20260510005343 | 66 | 198 | 0.0 | 0.0 | 0.00 | 0.00 | 0.00 | 70 | 1009.1 |
| 20260510004826 | 67 | 198 | 0.0 | 0.0 | 0.00 | 0.00 | 0.00 | 69 | 1009.1 |
| 20260510004530 | 67 | 198 | 0.0 | 0.0 | 0.00 | 0.00 | 0.00 | 68 | 1008.8 |
| 20260510004322 | 67 | 198 | 0.0 | 0.0 | 0.00 | 0.00 | 0.00 | 68 | 1009.0 |
| 20260510003819 | 68 | 198 | 0.0 | 0.0 | 0.00 | 0.00 | 0.00 | 67 | 1008.9 |
| 20260510003348 | 68 | 198 | 0.0 | 0.0 | 0.00 | 0.00 | 0.00 | 65 | 1008.9 |
| 20260510003023 | 68 | 198 | 0.0 | 0.0 | 0.00 | 0.00 | 0.00 | 65 | 1008.5 |
| 20260510002822 | 69 | 198 | 0.0 | 0.0 | 0.00 | 0.00 | 0.00 | 65 | 1008.7 |
| 20260510002325 | 69 | 198 | 0.0 | 0.0 | 0.00 | 0.00 | 0.00 | 64 | 1008.7 |
| 20260510001822 | 70 | 198 | 0.0 | 0.0 | 0.00 | 0.00 | 0.00 | 63 | 1008.6 |
| 20260510001548 | 70 | 198 | 0.0 | 0.0 | 0.00 | 0.00 | 0.00 | 63 | 1008.3 |
| 20260510001329 | 70 | 198 | 0.0 | 0.0 | 0.00 | 0.00 | 0.00 | 63 | 1008.5 |
| 20260510000830 | 71 | 198 | 0.0 | 1.0 | 0.00 | 0.00 | 0.00 | 62 | 1008.4 |
| 20260510000323 | 71 | 198 | 0.0 | 1.0 | 0.00 | 0.00 | 0.00 | 61 | 1008.4 |
| 20260510000016 | 71 | 198 | 0.0 | 1.0 | 0.00 | 0.00 | 0.00 | 60 | 1008.1 |
| 20260509235827 | 71 | 198 | 0.0 | 2.0 | 0.00 | 0.00 | 0.00 | 60 | 1008.4 |
| 20260509235335 | 72 | 198 | 0.0 | 3.0 | 0.00 | 0.00 | 0.00 | 60 | 1008.4 |
| 20260509234821 | 72 | 198 | 0.0 | 4.0 | 0.00 | 0.00 | 0.00 | 59 | 1008.4 |
| 20260509234529 | 72 | 198 | 0.0 | 6.0 | 0.00 | 0.00 | 0.00 | 59 | 1008.1 |
| 20260509234319 | 72 | 198 | 1.0 | 6.0 | 0.00 | 0.00 | 0.00 | 59 | 1008.4 |
| 20260509233826 | 73 | 203 | 2.0 | 6.0 | 0.00 | 0.00 | 0.00 | 58 | 1008.3 |
| 20260509233323 | 73 | 187 | 1.0 | 5.0 | 0.00 | 0.00 | 0.00 | 57 | 1008.4 |
| 20260509233046 | 72 | 171 | 1.0 | 5.0 | 0.00 | 0.00 | 0.00 | 57 | 1008.1 |
| 20260509232841 | 73 | 166 | 0.0 | 5.0 | 0.00 | 0.00 | 0.00 | 57 | 1008.3 |
| 20260509232317 | 73 | 154 | 1.0 | 9.0 | 0.00 | 0.00 | 0.00 | 57 | 1008.3 |
| 20260509231829 | 73 | 179 | 3.0 | 9.0 | 0.00 | 0.00 | 0.00 | 56 | 1008.2 |
| 20260509231648 | 73 | 203 | 3.0 | 9.0 | 0.00 | 0.00 | 0.00 | 56 | 1008.0 |
| 20260509231330 | 73 | 152 | 3.0 | 9.0 | 0.00 | 0.00 | 0.00 | 56 | 1008.2 |
| 20260509230837 | 73 | 203 | 6.0 | 11.0 | 0.00 | 0.00 | 0.00 | 56 | 1008.2 |
| 20260509230331 | 73 | 241 | 4.0 | 11.0 | 0.00 | 0.00 | 0.00 | 55 | 1008.2 |
| 20260509230046 | 73 | 193 | 4.0 | 11.0 | 0.00 | 0.00 | 0.00 | 55 | 1008.0 |
| 20260509225819 | 73 | 191 | 2.0 | 11.0 | 0.00 | 0.00 | 0.00 | 55 | 1008.3 |
| 20260509225327 | 73 | 264 | 5.0 | 10.0 | 0.00 | 0.00 | 0.00 | 54 | 1008.3 |
| 20260509224844 | 74 | 210 | 4.0 | 10.0 | 0.00 | 0.00 | 0.00 | 55 | 1008.2 |
| 20260509224538 | 73 | 205 | 3.0 | 13.0 | 0.00 | 0.00 | 0.00 | 54 | 1008.0 |
| 20260509224337 | 74 | 162 | 5.0 | 13.0 | 0.00 | 0.00 | 0.00 | 54 | 1008.3 |
| 20260509223833 | 74 | 165 | 4.0 | 10.0 | 0.00 | 0.00 | 0.00 | 54 | 1008.2 |
| 20260509223320 | 74 | 179 | 2.0 | 10.0 | 0.00 | 0.00 | 0.00 | 53 | 1008.2 |
| 20260509223039 | 74 | 213 | 5.0 | 10.0 | 0.00 | 0.00 | 0.00 | 53 | 1008.0 |
| 20260509222836 | 75 | 204 | 6.0 | 10.0 | 0.00 | 0.00 | 0.00 | 53 | 1008.2 |
| 20260509222406 | 75 | 215 | 2.0 | 10.0 | 0.00 | 0.00 | 0.00 | 53 | 1008.2 |
| 20260509221822 | 75 | 233 | 5.0 | 14.0 | 0.00 | 0.00 | 0.00 | 52 | 1008.1 |
| 20260509221527 | 74 | 204 | 3.0 | 14.0 | 0.00 | 0.00 | 0.00 | 52 | 1007.9 |
| 20260509221318 | 75 | 196 | 7.0 | 14.0 | 0.00 | 0.00 | 0.00 | 52 | 1008.1 |
| 20260509220837 | 75 | 212 | 4.0 | 12.0 | 0.00 | 0.00 | 0.00 | 52 | 1008.1 |
| 20260509220340 | 75 | 220 | 6.0 | 10.0 | 0.00 | 0.00 | 0.00 | 52 | 1008.2 |
| 20260509220006 | 74 | 234 | 3.0 | 10.0 | 0.00 | 0.00 | 0.00 | 52 | 1008.0 |
| 20260509215820 | 74 | 193 | 4.0 | 10.0 | 0.00 | 0.00 | 0.00 | 52 | 1008.2 |
| 20260509215337 | 74 | 153 | 4.0 | 12.0 | 0.00 | 0.00 | 0.00 | 51 | 1008.2 |
| 20260509214825 | 74 | 168 | 5.0 | 12.0 | 0.00 | 0.00 | 0.00 | 51 | 1008.2 |
| 20260509214535 | 74 | 147 | 2.0 | 11.0 | 0.00 | 0.00 | 0.00 | 51 | 1008.0 |
| 20260509214338 | 74 | 203 | 7.0 | 11.0 | 0.00 | 0.00 | 0.00 | 51 | 1008.2 |
| 20260509213832 | 74 | 164 | 1.0 | 8.0 | 0.00 | 0.00 | 0.00 | 53 | 1008.2 |
| 20260509213314 | 74 | 164 | 2.0 | 7.0 | 0.00 | 0.00 | 0.00 | 53 | 1008.2 |
| 20260509213033 | 73 | 193 | 2.0 | 8.0 | 0.00 | 0.00 | 0.00 | 52 | 1007.9 |
| 20260509212826 | 74 | 157 | 3.0 | 9.0 | 0.00 | 0.00 | 0.00 | 52 | 1008.1 |
| 20260509212327 | 74 | 172 | 4.0 | 12.0 | 0.00 | 0.00 | 0.00 | 51 | 1008.1 |
| 20260509211844 | 74 | 172 | 5.0 | 12.0 | 0.00 | 0.00 | 0.00 | 51 | 1008.1 |
| 20260509211534 | 74 | 198 | 3.0 | 13.0 | 0.00 | 0.00 | 0.00 | 51 | 1007.8 |
| 20260509211339 | 74 | 188 | 6.0 | 13.0 | 0.00 | 0.00 | 0.00 | 50 | 1008.1 |
| 20260509210826 | 75 | 193 | 4.0 | 13.0 | 0.00 | 0.00 | 0.00 | 49 | 1008.1 |
| 20260509210336 | 76 | 194 | 5.0 | 13.0 | 0.00 | 0.00 | 0.00 | 49 | 1008.0 |
| 20260509210103 | 75 | 175 | 6.0 | 13.0 | 0.00 | 0.00 | 0.00 | 50 | 1007.7 |
| 20260509205839 | 76 | 187 | 2.0 | 10.0 | 0.00 | 0.00 | 0.00 | 51 | 1007.9 |
| 20260509205321 | 75 | 343 | 3.0 | 11.0 | 0.00 | 0.00 | 0.00 | 50 | 1007.9 |
| 20260509204836 | 75 | 268 | 5.0 | 12.0 | 0.00 | 0.00 | 0.00 | 49 | 1008.0 |
| 20260509204531 | 75 | 197 | 6.0 | 12.0 | 0.00 | 0.00 | 0.00 | 50 | 1007.6 |
| 20260509204323 | 75 | 204 | 5.0 | 12.0 | 0.00 | 0.00 | 0.00 | 50 | 1007.8 |
| 20260509203831 | 75 | 254 | 3.0 | 10.0 | 0.00 | 0.00 | 0.00 | 51 | 1007.8 |
| 20260509203327 | 75 | 245 | 4.0 | 10.0 | 0.00 | 0.00 | 0.00 | 50 | 1007.9 |
| 20260509203118 | 75 | 239 | 4.0 | 9.0 | 0.00 | 0.00 | 0.00 | 50 | 1007.6 |
| 20260509202815 | 75 | 241 | 2.0 | 9.0 | 0.00 | 0.00 | 0.00 | 51 | 1007.9 |
| 20260509202345 | 75 | 185 | 4.0 | 9.0 | 0.00 | 0.00 | 0.00 | 51 | 1007.8 |
| 20260509201835 | 74 | 268 | 2.0 | 9.0 | 0.00 | 0.00 | 0.00 | 52 | 1007.9 |
| 20260509201559 | 73 | 209 | 2.0 | 9.0 | 0.00 | 0.00 | 0.00 | 52 | 1007.7 |
| 20260509201324 | 73 | 300 | 1.0 | 13.0 | 0.00 | 0.00 | 0.00 | 51 | 1007.9 |
| 20260509200818 | 73 | 218 | 5.0 | 13.0 | 0.00 | 0.00 | 0.00 | 51 | 1008.0 |
| 20260509200354 | 74 | 187 | 3.0 | 7.0 | 0.00 | 0.00 | 0.00 | 52 | 1008.0 |
| 20260509200107 | 73 | 219 | 2.0 | 7.0 | 0.00 | 0.00 | 0.00 | 51 | 1007.8 |
| 20260509195814 | 74 | 299 | 4.0 | 8.0 | 0.00 | 0.00 | 0.00 | 53 | 1008.0 |
| 20260509195330 | 73 | 289 | 1.0 | 9.0 | 0.00 | 0.00 | 0.00 | 52 | 1008.0 |
| 20260509194818 | 74 | 198 | 3.0 | 14.0 | 0.00 | 0.00 | 0.00 | 50 | 1008.1 |
| 20260509194514 | 74 | 221 | 8.0 | 14.0 | 0.00 | 0.00 | 0.00 | 50 | 1008.0 |
| 20260509194354 | 74 | 176 | 6.0 | 12.0 | 0.00 | 0.00 | 0.00 | 51 | 1008.2 |
| 20260509193826 | 73 | 218 | 2.0 | 6.0 | 0.00 | 0.00 | 0.00 | 54 | 1008.3 |
| 20260509193403 | 73 | 314 | 2.0 | 6.0 | 0.00 | 0.00 | 0.00 | 56 | 1008.4 |
| 20260509193103 | 72 | 277 | 2.0 | 7.0 | 0.00 | 0.00 | 0.00 | 55 | 1008.2 |
| 20260509192830 | 72 | 288 | 3.0 | 7.0 | 0.00 | 0.00 | 0.00 | 56 | 1008.5 |
| 20260509192346 | 72 | 171 | 3.0 | 10.0 | 0.00 | 0.00 | 0.00 | 56 | 1008.5 |
| 20260509191828 | 72 | 204 | 1.0 | 10.0 | 0.00 | 0.00 | 0.00 | 55 | 1008.6 |
| 20260509191604 | 72 | 199 | 3.0 | 10.0 | 0.00 | 0.00 | 0.00 | 55 | 1008.4 |
| 20260509191316 | 72 | 237 | 1.0 | 9.0 | 0.00 | 0.00 | 0.00 | 57 | 1008.7 |
| 20260509190829 | 72 | 266 | 0.0 | 7.0 | 0.00 | 0.00 | 0.00 | 57 | 1008.8 |
| 20260509190315 | 71 | 298 | 2.0 | 11.0 | 0.00 | 0.00 | 0.00 | 57 | 1008.8 |
| 20260509190009 | 71 | 137 | 6.0 | 11.0 | 0.00 | 0.00 | 0.00 | 55 | 1008.5 |
| 20260509185822 | 71 | 150 | 7.0 | 12.0 | 0.00 | 0.00 | 0.00 | 55 | 1008.9 |
| 20260509185339 | 71 | 169 | 4.0 | 10.0 | 0.00 | 0.00 | 0.00 | 56 | 1009.0 |
| 20260509184826 | 71 | 222 | 0.0 | 4.0 | 0.00 | 0.00 | 0.00 | 56 | 1009.0 |
| 20260509184544 | 71 | 222 | 0.0 | 4.0 | 0.00 | 0.00 | 0.00 | 57 | 1008.7 |
| 20260509184314 | 71 | 300 | 0.0 | 5.0 | 0.00 | 0.00 | 0.00 | 57 | 1009.0 |
| 20260509183824 | 71 | 289 | 2.0 | 5.0 | 0.00 | 0.00 | 0.00 | 58 | 1009.0 |
| 20260509183321 | 71 | 181 | 1.0 | 5.0 | 0.00 | 0.00 | 0.00 | 59 | 1009.2 |
| 20260509183111 | 71 | 133 | 1.0 | 5.0 | 0.00 | 0.00 | 0.00 | 60 | 1008.9 |
| 20260509182826 | 71 | 222 | 0.0 | 5.0 | 0.00 | 0.00 | 0.00 | 59 | 1009.1 |
| 20260509182323 | 71 | 253 | 2.0 | 6.0 | 0.00 | 0.00 | 0.00 | 59 | 1009.3 |
| 20260509181831 | 71 | 194 | 1.0 | 7.0 | 0.00 | 0.00 | 0.00 | 59 | 1009.5 |
| 20260509181524 | 70 | 237 | 1.0 | 7.0 | 0.00 | 0.00 | 0.00 | 60 | 1009.3 |
| 20260509181327 | 71 | 237 | 2.0 | 7.0 | 0.00 | 0.00 | 0.00 | 60 | 1009.6 |
| 20260509180814 | 70 | 173 | 1.0 | 7.0 | 0.00 | 0.00 | 0.00 | 62 | 1009.8 |
| 20260509180314 | 70 | 137 | 1.0 | 6.0 | 0.00 | 0.00 | 0.00 | 62 | 1009.9 |
| 20260509180113 | 69 | 158 | 2.0 | 9.0 | 0.00 | 0.00 | 0.00 | 62 | 1009.8 |
| 20260509175840 | 70 | 285 | 4.0 | 9.0 | 0.00 | 0.00 | 0.00 | 61 | 1010.1 |
| 20260509175317 | 70 | 169 | 3.0 | 11.0 | 0.00 | 0.00 | 0.00 | 62 | 1010.2 |
| 20260509174813 | 70 | 330 | 5.0 | 11.0 | 0.00 | 0.00 | 0.00 | 61 | 1010.2 |
| 20260509174554 | 69 | 216 | 6.0 | 11.0 | 0.00 | 0.00 | 0.00 | 62 | 1010.0 |
| 20260509174321 | 70 | 134 | 5.0 | 11.0 | 0.00 | 0.00 | 0.00 | 62 | 1010.2 |
| 20260509173817 | 70 | 233 | 4.0 | 11.0 | 0.00 | 0.00 | 0.00 | 61 | 1010.3 |
| 20260509173354 | 70 | 187 | 5.0 | 11.0 | 0.00 | 0.00 | 0.00 | 62 | 1010.4 |
| 20260509173111 | 70 | 191 | 5.0 | 11.0 | 0.00 | 0.00 | 0.00 | 61 | 1010.2 |
| 20260509172820 | 70 | 206 | 2.0 | 9.0 | 0.00 | 0.00 | 0.00 | 63 | 1010.4 |
| 20260509172337 | 70 | 181 | 4.0 | 9.0 | 0.00 | 0.00 | 0.00 | 63 | 1010.4 |
| 20260509171819 | 69 | 200 | 2.0 | 9.0 | 0.00 | 0.00 | 0.00 | 64 | 1010.5 |
| 20260509171507 | 68 | 175 | 4.0 | 9.0 | 0.00 | 0.00 | 0.00 | 64 | 1010.4 |
| 20260509171316 | 69 | 177 | 6.0 | 8.0 | 0.00 | 0.00 | 0.00 | 64 | 1010.6 |
| 20260509170832 | 68 | 353 | 2.0 | 12.0 | 0.00 | 0.00 | 0.00 | 66 | 1010.6 |
| 20260509170320 | 68 | 87 | 1.0 | 12.0 | 0.00 | 0.00 | 0.00 | 65 | 1010.6 |
| 20260509170036 | 67 | 156 | 7.0 | 12.0 | 0.00 | 0.00 | 0.00 | 64 | 1010.4 |
| 20260509165830 | 68 | 99 | 4.0 | 10.0 | 0.00 | 0.00 | 0.00 | 66 | 1010.5 |
| 20260509165318 | 68 | 127 | 3.0 | 7.0 | 0.00 | 0.00 | 0.00 | 65 | 1010.7 |
| 20260509164814 | 67 | 151 | 5.0 | 9.0 | 0.00 | 0.00 | 0.00 | 66 | 1010.6 |
| 20260509164551 | 66 | 214 | 0.0 | 9.0 | 0.00 | 0.00 | 0.00 | 67 | 1010.5 |
| 20260509164322 | 66 | 216 | 2.0 | 9.0 | 0.00 | 0.00 | 0.00 | 67 | 1010.7 |
| 20260509163818 | 66 | 157 | 3.0 | 7.0 | 0.00 | 0.00 | 0.00 | 67 | 1010.8 |
| 20260509163326 | 66 | 245 | 4.0 | 6.0 | 0.00 | 0.00 | 0.00 | 67 | 1010.8 |
| 20260509163024 | 65 | 168 | 2.0 | 7.0 | 0.00 | 0.00 | 0.00 | 66 | 1010.5 |
| 20260509162823 | 66 | 152 | 4.0 | 9.0 | 0.00 | 0.00 | 0.00 | 67 | 1010.7 |
| 20260509162339 | 65 | 179 | 3.0 | 9.0 | 0.00 | 0.00 | 0.00 | 68 | 1010.8 |
| 20260509161824 | 65 | 148 | 2.0 | 7.0 | 0.00 | 0.00 | 0.00 | 67 | 1010.7 |
| 20260509161524 | 65 | 163 | 3.0 | 7.0 | 0.00 | 0.00 | 0.00 | 66 | 1010.6 |
| 20260509161341 | 65 | 193 | 3.0 | 6.0 | 0.00 | 0.00 | 0.00 | 66 | 1010.8 |
| 20260509160836 | 65 | 231 | 2.0 | 8.0 | 0.00 | 0.00 | 0.00 | 65 | 1010.7 |
| 20260509160324 | 66 | 156 | 4.0 | 8.0 | 0.00 | 0.00 | 0.00 | 65 | 1010.8 |
| 20260509160016 | 65 | 281 | 0.0 | 6.0 | 0.00 | 0.00 | 0.00 | 66 | 1010.7 |
| 20260509155831 | 66 | 176 | 1.0 | 7.0 | 0.00 | 0.00 | 0.00 | 65 | 1010.9 |
| 20260509155319 | 66 | 206 | 2.0 | 7.0 | 0.00 | 0.00 | 0.00 | 65 | 1010.9 |
| 20260509154816 | 66 | 206 | 5.0 | 7.0 | 0.00 | 0.00 | 0.00 | 64 | 1011.0 |
| 20260509154546 | 66 | 135 | 2.0 | 8.0 | 0.00 | 0.00 | 0.00 | 64 | 1010.8 |
| 20260509154324 | 66 | 149 | 3.0 | 9.0 | 0.00 | 0.00 | 0.00 | 65 | 1011.0 |
| 20260509153820 | 66 | 286 | 3.0 | 11.0 | 0.00 | 0.00 | 0.00 | 65 | 1011.0 |
| 20260509153336 | 66 | 161 | 3.0 | 11.0 | 0.00 | 0.00 | 0.00 | 65 | 1011.1 |
| 20260509153017 | 65 | 175 | 2.0 | 11.0 | 0.00 | 0.00 | 0.00 | 64 | 1010.8 |
| 20260509152823 | 66 | 259 | 2.0 | 6.0 | 0.00 | 0.00 | 0.00 | 64 | 1011.0 |
| 20260509152340 | 65 | 337 | 2.0 | 9.0 | 0.00 | 0.00 | 0.00 | 66 | 1011.0 |
| 20260509151844 | 64 | 179 | 2.0 | 9.0 | 0.00 | 0.00 | 0.00 | 67 | 1011.0 |
| 20260509151521 | 64 | 150 | 4.0 | 9.0 | 0.00 | 0.00 | 0.00 | 67 | 1010.7 |
| 20260509151339 | 64 | 162 | 3.0 | 6.0 | 0.00 | 0.00 | 0.00 | 67 | 1010.8 |
| 20260509150834 | 64 | 195 | 2.0 | 5.0 | 0.00 | 0.00 | 0.00 | 66 | 1010.9 |
| 20260509150321 | 63 | 195 | 3.0 | 8.0 | 0.00 | 0.00 | 0.00 | 67 | 1011.2 |
| 20260509150114 | 63 | 166 | 1.0 | 8.0 | 0.00 | 0.00 | 0.00 | 68 | 1011.0 |
| 20260509145825 | 63 | 220 | 3.0 | 7.0 | 0.00 | 0.00 | 0.00 | 67 | 1011.2 |
| 20260509145327 | 62 | 228 | 3.0 | 8.0 | 0.00 | 0.00 | 0.00 | 68 | 1011.2 |
| 20260509144814 | 62 | 179 | 4.0 | 8.0 | 0.00 | 0.00 | 0.00 | 68 | 1011.2 |
| 20260509144502 | 61 | 237 | 1.0 | 7.0 | 0.00 | 0.00 | 0.00 | 69 | 1011.0 |
| 20260509144331 | 61 | 136 | 2.0 | 7.0 | 0.00 | 0.00 | 0.00 | 68 | 1011.2 |
| 20260509143827 | 61 | 173 | 2.0 | 8.0 | 0.00 | 0.00 | 0.00 | 69 | 1011.1 |
| 20260509143315 | 60 | 160 | 1.0 | 10.0 | 0.00 | 0.00 | 0.00 | 70 | 1011.1 |
| 20260509143037 | 59 | 181 | 1.0 | 10.0 | 0.00 | 0.00 | 0.00 | 70 | 1010.9 |
| 20260509142851 | 60 | 158 | 3.0 | 10.0 | 0.00 | 0.00 | 0.00 | 69 | 1011.1 |
| 20260509142318 | 60 | 146 | 2.0 | 6.0 | 0.00 | 0.00 | 0.00 | 70 | 1011.3 |
| 20260509141814 | 60 | 154 | 3.0 | 6.0 | 0.00 | 0.00 | 0.00 | 71 | 1011.3 |
| 20260509141546 | 59 | 160 | 2.0 | 4.0 | 0.00 | 0.00 | 0.00 | 70 | 1011.1 |
| 20260509141333 | 59 | 156 | 2.0 | 6.0 | 0.00 | 0.00 | 0.00 | 71 | 1011.3 |
| 20260509140820 | 59 | 156 | 1.0 | 6.0 | 0.00 | 0.00 | 0.00 | 71 | 1011.3 |
| 20260509140336 | 59 | 177 | 1.0 | 4.0 | 0.00 | 0.00 | 0.00 | 72 | 1011.5 |
| 20260509140050 | 58 | 177 | 1.0 | 4.0 | 0.00 | 0.00 | 0.00 | 73 | 1011.3 |
| 20260509135826 | 58 | 177 | 0.0 | 0.0 | 0.00 | 0.00 | 0.00 | 72 | 1011.6 |
| 20260509135333 | 58 | 179 | 0.0 | 0.0 | 0.00 | 0.00 | 0.00 | 74 | 1011.6 |
| 20260509134829 | 58 | 179 | 0.0 | 1.0 | 0.00 | 0.00 | 0.00 | 74 | 1011.7 |
| 20260509134602 | 57 | 179 | 0.0 | 1.0 | 0.00 | 0.00 | 0.00 | 74 | 1011.5 |
| 20260509134317 | 57 | 179 | 0.0 | 1.0 | 0.00 | 0.00 | 0.00 | 75 | 1011.8 |
| 20260509133829 | 57 | 179 | 0.0 | 2.0 | 0.00 | 0.00 | 0.00 | 75 | 1011.9 |
| 20260509133317 | 57 | 179 | 0.0 | 2.0 | 0.00 | 0.00 | 0.00 | 76 | 1011.9 |
| 20260509133029 | 56 | 179 | 0.0 | 4.0 | 0.00 | 0.00 | 0.00 | 75 | 1011.8 |
| 20260509132834 | 56 | 179 | 1.0 | 4.0 | 0.00 | 0.00 | 0.00 | 75 | 1011.9 |
| 20260509132321 | 56 | 183 | 0.0 | 4.0 | 0.00 | 0.00 | 0.00 | 76 | 1011.9 |
| 20260509131838 | 56 | 184 | 2.0 | 4.0 | 0.00 | 0.00 | 0.00 | 76 | 1012.0 |
| 20260509131559 | 55 | 185 | 2.0 | 5.0 | 0.00 | 0.00 | 0.00 | 76 | 1011.8 |
| 20260509131325 | 56 | 185 | 2.0 | 5.0 | 0.00 | 0.00 | 0.00 | 77 | 1012.0 |
| 20260509130821 | 56 | 215 | 1.0 | 5.0 | 0.00 | 0.00 | 0.00 | 77 | 1012.0 |
| 20260509130329 | 55 | 193 | 1.0 | 4.0 | 0.00 | 0.00 | 0.00 | 77 | 1012.0 |
| 20260509130007 | 55 | 280 | 0.0 | 3.0 | 0.00 | 0.00 | 0.00 | 78 | 1011.8 |
| 20260509125838 | 55 | 272 | 1.0 | 3.0 | 0.00 | 0.00 | 0.00 | 79 | 1011.9 |
| 20260509125315 | 55 | 272 | 0.0 | 1.0 | 0.00 | 0.00 | 0.00 | 78 | 1011.9 |
| 20260509124823 | 54 | 272 | 0.0 | 0.0 | 0.00 | 0.00 | 0.00 | 79 | 1011.8 |
| 20260509124518 | 54 | 272 | 0.0 | 0.0 | 0.00 | 0.00 | 0.00 | 79 | 1011.7 |
| 20260509124339 | 54 | 272 | 0.0 | 0.0 | 0.00 | 0.00 | 0.00 | 79 | 1011.8 |
| 20260509123835 | 54 | 272 | 0.0 | 0.0 | 0.00 | 0.00 | 0.00 | 79 | 1011.9 |
| 20260509123332 | 53 | 272 | 0.0 | 0.0 | 0.00 | 0.00 | 0.00 | 80 | 1011.9 |
| 20260509123013 | 53 | 272 | 0.0 | 0.0 | 0.00 | 0.00 | 0.00 | 80 | 1011.8 |
| 20260509122819 | 53 | 272 | 0.0 | 0.0 | 0.00 | 0.00 | 0.00 | 80 | 1011.9 |
| 20260509122336 | 53 | 246 | 0.0 | 0.0 | 0.00 | 0.00 | 0.00 | 82 | 1011.9 |
| 20260509121824 | 52 | 191 | 0.0 | 0.0 | 0.00 | 0.00 | 0.00 | 83 | 1011.9 |
| 20260509121546 | 51 | 191 | 0.0 | 0.0 | 0.00 | 0.00 | 0.00 | 83 | 1011.9 |
| 20260509121341 | 52 | 191 | 0.0 | 0.0 | 0.00 | 0.00 | 0.00 | 83 | 1012.0 |
| 20260509120828 | 51 | 200 | 0.0 | 0.0 | 0.00 | 0.00 | 0.00 | 83 | 1011.9 |
| 20260509120316 | 51 | 200 | 0.0 | 0.0 | 0.00 | 0.00 | 0.00 | 83 | 1011.9 |
| 20260509120110 | 50 | 200 | 0.0 | 0.0 | 0.00 | 0.00 | 0.00 | 83 | 1011.8 |
| 20260509115825 | 51 | 200 | 0.0 | 0.0 | 0.00 | 0.00 | 0.00 | 83 | 1011.8 |
| 20260509115322 | 50 | 200 | 0.0 | 0.0 | 0.00 | 0.00 | 0.00 | 82 | 1011.9 |
| 20260509114829 | 50 | 200 | 0.0 | 0.0 | 0.00 | 0.00 | 0.00 | 81 | 1011.9 |
| 20260509114517 | 49 | 200 | 0.0 | 0.0 | 0.00 | 0.00 | 0.00 | 81 | 1011.8 |
| 20260509114342 | 50 | 200 | 0.0 | 0.0 | 0.00 | 0.00 | 0.00 | 81 | 1011.9 |
| 20260509113837 | 49 | 200 | 0.0 | 0.0 | 0.00 | 0.00 | 0.00 | 80 | 1012.1 |
| 20260509113333 | 49 | 200 | 0.0 | 0.0 | 0.00 | 0.00 | 0.00 | 79 | 1012.0 |
| 20260509113005 | 48 | 200 | 0.0 | 0.0 | 0.00 | 0.00 | 0.00 | 79 | 1011.9 |
| 20260509112820 | 49 | 200 | 0.0 | 0.0 | 0.00 | 0.00 | 0.00 | 79 | 1012.0 |
| 20260509112337 | 48 | 200 | 0.0 | 0.0 | 0.00 | 0.00 | 0.00 | 79 | 1011.9 |
| 20260509111824 | 48 | 200 | 0.0 | 0.0 | 0.00 | 0.00 | 0.00 | 79 | 1011.9 |
| 20260509111536 | 48 | 201 | 0.0 | 0.0 | 0.00 | 0.00 | 0.00 | 78 | 1011.7 |
| 20260509111341 | 48 | 200 | 0.0 | 0.0 | 0.00 | 0.00 | 0.00 | 78 | 1011.8 |
| 20260509110858 | 48 | 199 | 0.0 | 0.0 | 0.00 | 0.00 | 0.00 | 78 | 1011.7 |
| 20260509110324 | 48 | 199 | 0.0 | 0.0 | 0.00 | 0.00 | 0.00 | 79 | 1011.7 |
| 20260509110046 | 47 | 199 | 0.0 | 0.0 | 0.00 | 0.00 | 0.00 | 79 | 1011.7 |
| 20260509105833 | 47 | 199 | 0.0 | 0.0 | 0.00 | 0.00 | 0.00 | 79 | 1011.8 |
| 20260509105320 | 47 | 199 | 0.0 | 0.0 | 0.00 | 0.00 | 0.00 | 79 | 1011.8 |
| 20260509104816 | 47 | 199 | 0.0 | 0.0 | 0.00 | 0.00 | 0.00 | 79 | 1011.8 |
| 20260509104608 | 47 | 199 | 0.0 | 0.0 | 0.00 | 0.00 | 0.00 | 80 | 1011.7 |
| 20260509104353 | 47 | 199 | 0.0 | 0.0 | 0.00 | 0.00 | 0.00 | 80 | 1011.9 |
| 20260509103819 | 47 | 199 | 0.0 | 0.0 | 0.00 | 0.00 | 0.00 | 80 | 1011.9 |
| 20260509103337 | 47 | 199 | 0.0 | 0.0 | 0.00 | 0.00 | 0.00 | 80 | 1011.8 |
| 20260509103001 | 47 | 199 | 0.0 | 0.0 | 0.00 | 0.00 | 0.00 | 80 | 1011.7 |
| 20260509102824 | 47 | 199 | 0.0 | 0.0 | 0.00 | 0.00 | 0.00 | 80 | 1011.7 |
| 20260509102341 | 47 | 199 | 0.0 | 0.0 | 0.00 | 0.00 | 0.00 | 81 | 1011.8 |
| 20260509101828 | 47 | 199 | 0.0 | 0.0 | 0.00 | 0.00 | 0.00 | 81 | 1011.9 |
| 20260509101536 | 47 | 199 | 0.0 | 0.0 | 0.00 | 0.00 | 0.00 | 81 | 1011.7 |
| 20260509101325 | 47 | 199 | 0.0 | 0.0 | 0.00 | 0.00 | 0.00 | 81 | 1011.8 |
| 20260509100832 | 47 | 199 | 0.0 | 0.0 | 0.00 | 0.00 | 0.00 | 81 | 1011.7 |
| 20260509100349 | 48 | 199 | 0.0 | 0.0 | 0.00 | 0.00 | 0.00 | 81 | 1011.6 |
| 20260509100041 | 47 | 199 | 0.0 | 0.0 | 0.00 | 0.00 | 0.00 | 81 | 1011.5 |
| 20260509095817 | 48 | 199 | 0.0 | 0.0 | 0.00 | 0.00 | 0.00 | 81 | 1011.7 |
| 20260509095321 | 48 | 199 | 0.0 | 0.0 | 0.00 | 0.00 | 0.00 | 81 | 1011.7 |
| 20260509094817 | 48 | 199 | 0.0 | 0.0 | 0.00 | 0.00 | 0.00 | 81 | 1011.7 |
| 20260509094555 | 47 | 199 | 0.0 | 0.0 | 0.00 | 0.00 | 0.00 | 81 | 1011.5 |
| 20260509094325 | 48 | 199 | 0.0 | 0.0 | 0.00 | 0.00 | 0.00 | 81 | 1011.7 |
| 20260509093841 | 48 | 199 | 0.0 | 0.0 | 0.00 | 0.00 | 0.00 | 81 | 1011.8 |
| 20260509093337 | 48 | 199 | 0.0 | 0.0 | 0.00 | 0.00 | 0.00 | 81 | 1011.8 |
| 20260509093104 | 47 | 199 | 0.0 | 0.0 | 0.00 | 0.00 | 0.00 | 81 | 1011.9 |
| 20260509092824 | 47 | 199 | 0.0 | 0.0 | 0.00 | 0.00 | 0.00 | 81 | 1012.0 |
| 20260509092318 | 47 | 199 | 0.0 | 0.0 | 0.00 | 0.00 | 0.00 | 81 | 1011.9 |
| 20260509091824 | 47 | 199 | 0.0 | 0.0 | 0.00 | 0.00 | 0.00 | 81 | 1012.0 |
| 20260509091525 | 47 | 199 | 0.0 | 0.0 | 0.00 | 0.00 | 0.00 | 81 | 1011.9 |
| 20260509091321 | 47 | 199 | 0.0 | 0.0 | 0.00 | 0.00 | 0.00 | 81 | 1012.0 |
| 20260509090857 | 47 | 199 | 0.0 | 0.0 | 0.00 | 0.00 | 0.00 | 81 | 1011.9 |
| 20260509090324 | 47 | 199 | 0.0 | 0.0 | 0.00 | 0.00 | 0.00 | 81 | 1011.9 |
| 20260509090047 | 47 | 199 | 0.0 | 0.0 | 0.00 | 0.00 | 0.00 | 80 | 1011.9 |
| 20260509085813 | 47 | 199 | 0.0 | 0.0 | 0.00 | 0.00 | 0.00 | 80 | 1012.0 |
| 20260509085321 | 47 | 199 | 0.0 | 0.0 | 0.00 | 0.00 | 0.00 | 80 | 1012.0 |
| 20260509084837 | 47 | 199 | 0.0 | 0.0 | 0.00 | 0.00 | 0.00 | 80 | 1012.1 |
| 20260509084526 | 47 | 199 | 0.0 | 0.0 | 0.00 | 0.00 | 0.00 | 80 | 1012.0 |
| 20260509084333 | 47 | 199 | 0.0 | 0.0 | 0.00 | 0.00 | 0.00 | 80 | 1012.1 |
| 20260509083815 | 47 | 199 | 0.0 | 0.0 | 0.00 | 0.00 | 0.00 | 80 | 1012.2 |
| 20260509083332 | 47 | 199 | 0.0 | 0.0 | 0.00 | 0.00 | 0.00 | 80 | 1012.1 |
| 20260509083050 | 46 | 199 | 0.0 | 0.0 | 0.00 | 0.00 | 0.00 | 80 | 1012.0 |
| 20260509082819 | 47 | 199 | 0.0 | 0.0 | 0.00 | 0.00 | 0.00 | 81 | 1012.1 |
| 20260509082316 | 47 | 199 | 0.0 | 0.0 | 0.00 | 0.00 | 0.00 | 81 | 1012.1 |
| 20260509081823 | 47 | 199 | 0.0 | 0.0 | 0.00 | 0.00 | 0.00 | 81 | 1012.1 |
| 20260509081524 | 46 | 199 | 0.0 | 0.0 | 0.00 | 0.00 | 0.00 | 81 | 1012.1 |
| 20260509081320 | 47 | 199 | 0.0 | 0.0 | 0.00 | 0.00 | 0.00 | 81 | 1012.1 |
| 20260509080852 | 47 | 199 | 0.0 | 0.0 | 0.00 | 0.00 | 0.00 | 81 | 1012.1 |
| 20260509080319 | 47 | 199 | 0.0 | 0.0 | 0.00 | 0.00 | 0.00 | 81 | 1012.1 |
| 20260509080007 | 46 | 199 | 0.0 | 0.0 | 0.00 | 0.00 | 0.00 | 81 | 1012.1 |
| 20260509075850 | 47 | 199 | 0.0 | 0.0 | 0.00 | 0.00 | 0.00 | 81 | 1012.2 |
| 20260509075325 | 47 | 199 | 0.0 | 0.0 | 0.00 | 0.00 | 0.00 | 81 | 1012.3 |
| 20260509074841 | 47 | 199 | 0.0 | 0.0 | 0.00 | 0.00 | 0.00 | 81 | 1012.3 |
| 20260509074517 | 46 | 199 | 0.0 | 0.0 | 0.00 | 0.00 | 0.00 | 81 | 1012.3 |
| 20260509074329 | 47 | 199 | 0.0 | 0.0 | 0.00 | 0.00 | 0.00 | 81 | 1012.3 |
| 20260509073816 | 47 | 199 | 0.0 | 0.0 | 0.00 | 0.00 | 0.00 | 81 | 1012.4 |
| 20260509073353 | 47 | 199 | 0.0 | 0.0 | 0.00 | 0.00 | 0.00 | 81 | 1012.4 |
| 20260509073039 | 46 | 199 | 0.0 | 0.0 | 0.00 | 0.00 | 0.00 | 81 | 1012.4 |
| 20260509072827 | 47 | 199 | 0.0 | 0.0 | 0.00 | 0.00 | 0.00 | 81 | 1012.5 |
| 20260509072314 | 46 | 199 | 0.0 | 0.0 | 0.00 | 0.00 | 0.00 | 81 | 1012.4 |
| 20260509071831 | 46 | 199 | 0.0 | 0.0 | 0.00 | 0.00 | 0.00 | 81 | 1012.4 |
| 20260509071600 | 46 | 199 | 0.0 | 0.0 | 0.00 | 0.00 | 0.00 | 81 | 1012.4 |
| 20260509071319 | 46 | 199 | 0.0 | 0.0 | 0.00 | 0.00 | 0.00 | 81 | 1012.5 |
| 20260509070815 | 46 | 199 | 0.0 | 0.0 | 0.00 | 0.00 | 0.00 | 81 | 1012.5 |
| 20260509070352 | 46 | 199 | 0.0 | 0.0 | 0.00 | 0.00 | 0.00 | 82 | 1012.6 |
| 20260509070107 | 46 | 199 | 0.0 | 0.0 | 0.00 | 0.00 | 0.00 | 81 | 1012.5 |
| 20260509065841 | 46 | 199 | 0.0 | 0.0 | 0.00 | 0.00 | 0.00 | 81 | 1012.5 |
| 20260509065328 | 46 | 199 | 0.0 | 0.0 | 0.00 | 0.00 | 0.00 | 81 | 1012.5 |
| 20260509064844 | 46 | 199 | 0.0 | 0.0 | 0.00 | 0.00 | 0.00 | 81 | 1012.7 |
| 20260509064536 | 46 | 199 | 0.0 | 0.0 | 0.00 | 0.00 | 0.00 | 80 | 1012.6 |
| 20260509064340 | 46 | 199 | 0.0 | 0.0 | 0.00 | 0.00 | 0.00 | 80 | 1012.7 |
| 20260509063827 | 46 | 199 | 0.0 | 0.0 | 0.00 | 0.00 | 0.00 | 81 | 1012.8 |
| 20260509063314 | 46 | 199 | 0.0 | 0.0 | 0.00 | 0.00 | 0.00 | 81 | 1012.8 |
| 20260509063002 | 45 | 199 | 0.0 | 0.0 | 0.00 | 0.00 | 0.00 | 80 | 1012.8 |
| 20260509062827 | 46 | 199 | 0.0 | 0.0 | 0.00 | 0.00 | 0.00 | 80 | 1013.0 |
| 20260509062314 | 45 | 199 | 0.0 | 0.0 | 0.00 | 0.00 | 0.00 | 81 | 1012.9 |
| 20260509061831 | 45 | 199 | 0.0 | 0.0 | 0.00 | 0.00 | 0.00 | 81 | 1012.9 |
| 20260509061552 | 45 | 199 | 0.0 | 0.0 | 0.00 | 0.00 | 0.00 | 81 | 1012.8 |
| 20260509061328 | 45 | 199 | 0.0 | 0.0 | 0.00 | 0.00 | 0.00 | 81 | 1013.0 |
| 20260509060836 | 45 | 199 | 0.0 | 0.0 | 0.00 | 0.00 | 0.00 | 82 | 1013.0 |
| 20260509060353 | 46 | 199 | 0.0 | 0.0 | 0.00 | 0.00 | 0.00 | 82 | 1013.1 |
| 20260509060004 | 45 | 199 | 0.0 | 0.0 | 0.00 | 0.00 | 0.00 | 82 | 1013.0 |
| 20260509055840 | 46 | 199 | 0.0 | 0.0 | 0.00 | 0.00 | 0.00 | 81 | 1013.0 |
| 20260509055315 | 46 | 199 | 0.0 | 0.0 | 0.00 | 0.00 | 0.00 | 81 | 1013.0 |
| 20260509054823 | 46 | 199 | 0.0 | 0.0 | 0.00 | 0.00 | 0.00 | 81 | 1013.1 |
| 20260509054513 | 46 | 199 | 0.0 | 0.0 | 0.00 | 0.00 | 0.00 | 82 | 1013.0 |
| 20260509054340 | 46 | 199 | 0.0 | 0.0 | 0.00 | 0.00 | 0.00 | 82 | 1013.1 |
| 20260509053815 | 46 | 199 | 0.0 | 0.0 | 0.00 | 0.00 | 0.00 | 82 | 1013.1 |
| 20260509053318 | 46 | 199 | 0.0 | 2.0 | 0.00 | 0.00 | 0.00 | 82 | 1013.1 |
| 20260509053021 | 46 | 199 | 0.0 | 3.0 | 0.00 | 0.00 | 0.00 | 82 | 1013.1 |
| 20260509052815 | 46 | 199 | 1.0 | 3.0 | 0.00 | 0.00 | 0.00 | 82 | 1013.1 |
| 20260509052319 | 46 | 200 | 0.0 | 0.0 | 0.00 | 0.00 | 0.00 | 82 | 1013.1 |
| 20260509051816 | 47 | 200 | 0.0 | 0.0 | 0.00 | 0.00 | 0.00 | 82 | 1013.1 |
| 20260509051546 | 46 | 200 | 0.0 | 0.0 | 0.00 | 0.00 | 0.00 | 82 | 1013.0 |
| 20260509051323 | 47 | 200 | 0.0 | 0.0 | 0.00 | 0.00 | 0.00 | 82 | 1013.0 |
| 20260509050831 | 47 | 200 | 0.0 | 0.0 | 0.00 | 0.00 | 0.00 | 82 | 1013.0 |
| 20260509050328 | 47 | 200 | 0.0 | 0.0 | 0.00 | 0.00 | 0.00 | 82 | 1013.0 |
| 20260509050108 | 47 | 200 | 0.0 | 0.0 | 0.00 | 0.00 | 0.00 | 82 | 1012.9 |
| 20260509045828 | 47 | 200 | 0.0 | 0.0 | 0.00 | 0.00 | 0.00 | 82 | 1013.0 |
| 20260509045324 | 47 | 200 | 0.0 | 0.0 | 0.00 | 0.00 | 0.00 | 82 | 1013.0 |
| 20260509044828 | 47 | 200 | 0.0 | 0.0 | 0.00 | 0.00 | 0.00 | 82 | 1013.0 |
| 20260509044516 | 47 | 200 | 0.0 | 0.0 | 0.00 | 0.00 | 0.00 | 82 | 1013.0 |
| 20260509044325 | 47 | 200 | 0.0 | 0.0 | 0.00 | 0.00 | 0.00 | 82 | 1013.1 |
| 20260509043841 | 47 | 200 | 0.0 | 0.0 | 0.00 | 0.00 | 0.00 | 82 | 1013.1 |
| 20260509043328 | 47 | 200 | 0.0 | 0.0 | 0.00 | 0.00 | 0.00 | 82 | 1013.0 |
| 20260509043039 | 47 | 200 | 0.0 | 0.0 | 0.00 | 0.00 | 0.00 | 82 | 1012.8 |
| 20260509042838 | 48 | 200 | 0.0 | 0.0 | 0.00 | 0.00 | 0.00 | 82 | 1012.9 |
| 20260509042333 | 48 | 200 | 0.0 | 1.0 | 0.00 | 0.00 | 0.00 | 82 | 1013.0 |
| 20260509041829 | 48 | 200 | 0.0 | 2.0 | 0.00 | 0.00 | 0.00 | 82 | 1013.0 |
| 20260509041557 | 48 | 200 | 0.0 | 2.0 | 0.00 | 0.00 | 0.00 | 82 | 1012.8 |
| 20260509041316 | 48 | 200 | 0.0 | 0.0 | 0.00 | 0.00 | 0.00 | 82 | 1013.0 |
| 20260509040815 | 48 | 200 | 0.0 | 0.0 | 0.00 | 0.00 | 0.00 | 82 | 1013.0 |
| 20260509040322 | 49 | 200 | 0.0 | 0.0 | 0.00 | 0.00 | 0.00 | 82 | 1013.0 |
| 20260509040003 | 48 | 200 | 0.0 | 0.0 | 0.00 | 0.00 | 0.00 | 82 | 1013.0 |
| 20260509035901 | 49 | 200 | 0.0 | 0.0 | 0.00 | 0.00 | 0.00 | 81 | 1013.1 |
| 20260509035322 | 49 | 200 | 0.0 | 0.0 | 0.00 | 0.00 | 0.00 | 81 | 1013.2 |
| 20260509034826 | 49 | 200 | 0.0 | 0.0 | 0.00 | 0.00 | 0.00 | 81 | 1013.2 |
| 20260509034554 | 49 | 200 | 0.0 | 0.0 | 0.00 | 0.00 | 0.00 | 80 | 1013.1 |
| 20260509034325 | 50 | 200 | 0.0 | 0.0 | 0.00 | 0.00 | 0.00 | 80 | 1013.2 |
| 20260509033832 | 50 | 200 | 0.0 | 0.0 | 0.00 | 0.00 | 0.00 | 80 | 1013.2 |
| 20260509033345 | 50 | 200 | 0.0 | 0.0 | 0.00 | 0.00 | 0.00 | 80 | 1013.2 |
| 20260509032823 | 50 | 200 | 0.0 | 0.0 | 0.00 | 0.00 | 0.00 | 79 | 1013.2 |
| 20260509032319 | 51 | 200 | 0.0 | 0.0 | 0.00 | 0.00 | 0.00 | 78 | 1013.2 |